{"data":{"norad_id":58064,"epoch":"2026-09-20T08:22:14.834784Z","epoch_age_seconds":150676,"freshness":"FRESH","line1":"1 58064U 23158P   26263.34878281 -.00000532  00000+0 -98253-5 0  9995","line2":"2 58064  43.0037   7.4517 0001116 261.5099  98.5627 15.27578058163349","mean_motion":15.27578058,"eccentricity":0.0001116,"inclination_deg":43.0037,"raan_deg":7.4517,"arg_perigee_deg":261.5099,"mean_anomaly_deg":98.5627,"bstar":-9.8253e-6,"rev_number":16334,"period_min":94.266868554353,"perigee_km":482.28920207517,"apogee_km":483.82062010972,"semimajor_km":6861.1919110924,"source":"CELESTRAK","updated_at":"2026-09-21T09:00:33.779583Z"}}